Big Piney, WY

2:55 AM MDT on July 27, 2017 (GMT -0600)
Big Piney-Marbleton

Weather History for KBPI - March, 2013

Change the Weather History Date:

Saturday, March 16, 2013

  Actual Average Record
Temperature  
Mean Temperature 35 °F 28 °F  
Max Temperature 50 °F 41 °F 64 °F (2015)
Min Temperature 20 °F 14 °F -10 °F (1980)
Degree Days  
Heating Degree Days 30 37  
Month to date heating degree days 535 656  
Since 1 July heating degree days 7399 8179  
Cooling Degree Days 0 0  
Month to date cooling degree days 0 0  
Year to date cooling degree days 0 0  
Moisture  
Dew Point 16 °F    
Average Humidity 52    
Maximum Humidity 84    
Minimum Humidity 19    
Precipitation  
Precipitation 0.00 in 0.02 in 0.14 in (2016)
Month to date precipitation T 0.19  
Year to date precipitation 0.16 0.85  
Sea Level Pressure  
Sea Level Pressure 29.88 in    
Wind  
Wind Speed 7 mph (NNW)    
Max Wind Speed 23 mph    
Max Gust Speed 30 mph    
Visibility 10 miles    
Events      
T = Trace of Precipitation, MM = Missing Value Source: NWS Daily Summary

Daily Weather History Graph

Daily Weather History Graph

Search for Another Location

Airport or City:

Trip Planner

Search our weather history database for the weather conditions in past years. The results will help you decide how hot, cold, wet, or windy it might be!

Date:

Astronomy

Mar. 16, 2013 Rise Set
Actual Time 7:30 AM MDT 7:28 PM MDT
Civil Twilight 7:02 AM MDT 7:56 PM MDT
Nautical Twilight 6:29 AM MDT 8:29 PM MDT
Astronomical Twilight 5:56 AM MDT 9:02 PM MDT
Moon 9:55 AM MDT (3/16) No Moon Set
Length of Visible Light 12h 54m
Length of Day
11h 58m
Waxing Crescent, 23% of the Moon is Illuminated
Mar 16
Waxing Crescent
Mar 19
First Quarter
Mar 27
Full
Apr 2
Last Quarter
Apr 10
New

Hourly Weather History & Observations

Time (MDT) Temp. Windchill Dew Point Humidity Pressure Visibility Wind Dir Wind Speed Gust Speed Precip Events Conditions
12:53 AM 28.0 °F 24.2 °F 19.0 °F 69% 29.94 in 10.0 mi NW 3.5 mph - N/A   Clear
1:53 AM 27.0 °F 17.3 °F 19.9 °F 75% 29.91 in 10.0 mi NW 10.4 mph - N/A   Clear
2:53 AM 27.0 °F 23.0 °F 19.9 °F 75% 29.90 in 10.0 mi NE 3.5 mph - N/A   Clear
3:53 AM 23.0 °F 14.7 °F 18.0 °F 81% 29.90 in 10.0 mi WNW 6.9 mph - N/A   Clear
4:53 AM 24.1 °F 19.7 °F 19.0 °F 81% 29.89 in 10.0 mi North 3.5 mph - N/A   Clear
5:53 AM 21.9 °F - 18.0 °F 85% 29.91 in 10.0 mi Calm Calm - N/A   Clear
6:53 AM 21.9 °F - 18.0 °F 85% 29.94 in 10.0 mi Calm Calm - N/A   Clear
7:53 AM 21.0 °F - 17.1 °F 85% 29.96 in 10.0 mi Calm Calm - N/A   Clear
8:53 AM 26.1 °F 19.4 °F 21.0 °F 81% 29.95 in 10.0 mi East 5.8 mph - N/A   Partly Cloudy
9:53 AM 30.0 °F 26.5 °F 21.9 °F 72% 29.96 in 10.0 mi ESE 3.5 mph - N/A   Clear
10:53 AM 39.9 °F 37.8 °F 19.9 °F 45% 29.92 in 10.0 mi SSW 3.5 mph - N/A   Clear
11:53 AM 46.0 °F 41.4 °F 10.9 °F 24% 29.90 in 10.0 mi NW 9.2 mph - N/A   Clear
12:53 PM 46.0 °F 41.4 °F 14.0 °F 28% 29.89 in 10.0 mi NNW 9.2 mph 16.1 mph N/A   Clear
1:53 PM 48.0 °F - 12.9 °F 24% 29.86 in 10.0 mi NNW 16.1 mph 20.7 mph N/A   Clear
2:53 PM 48.9 °F - 12.0 °F 23% 29.85 in 10.0 mi NNW 17.3 mph 26.5 mph N/A   Clear
3:53 PM 48.9 °F - 8.1 °F 19% 29.84 in 10.0 mi North 16.1 mph 21.9 mph N/A   Clear
4:53 PM 48.0 °F - 8.1 °F 20% 29.84 in 10.0 mi North 18.4 mph 23.0 mph N/A   Clear
5:53 PM 46.0 °F 40.2 °F 10.0 °F 23% 29.86 in 10.0 mi North 12.7 mph - N/A   Clear
6:53 PM 42.1 °F 38.4 °F 10.9 °F 28% 29.87 in 10.0 mi NNW 5.8 mph - N/A   Clear
7:53 PM 36.0 °F - 14.0 °F 41% 29.90 in 10.0 mi Calm Calm - N/A   Clear
8:53 PM 34.0 °F 28.8 °F 16.0 °F 48% 29.88 in 10.0 mi West 5.8 mph - N/A   Clear
9:53 PM 32.0 °F 25.6 °F 18.0 °F 56% 29.86 in 10.0 mi NW 6.9 mph - N/A   Clear
10:53 PM 32.0 °F 25.6 °F 18.0 °F 56% 29.79 in 10.0 mi West 6.9 mph - N/A   Clear
11:53 PM 33.1 °F 28.7 °F 17.1 °F 52% 29.71 in 10.0 mi West 4.6 mph - N/A   Partly Cloudy